Starlink 35077

operational
NORAD ID: 65529 Int'l Des: 2025-200 Owner: SPXS Country: US Constellation: starlink
LEOCIRCULARRETROGRADE

关于 Starlink 35077

正在加载描述...

实时位置

正在加载3D地球...

即将过境

高度历史

Altitude vs Time

uPlot chart will show altitude changes over time

两行轨道根数

1 65529U 25200K 25304.17712274 .00049467 00000-0 12596-2 0 9996
2 65529 97.6043 11.8307 0001916 111.9882 248.1567 15.39411050 9624
Epoch: Oct 31, 2025 • Age: 9 hours

当前状态

高度 463.8 km
速度 7.63 km/s
星下点 -40.63°S, 49.52°W
发射日期 Sep 6, 2025
运行时间 0.1 years
类型 internet

技术详情

分类 Payload
质量 575.00 kg
干质量 530.00 kg
总质量 575.00 kg
长度 0.30 m
直径 4.10 m
跨度 29.00 m
形状 Box + pan
制造商 SPXS
平台类型 Starlink V2MO
阶段状态 In Orbit
所有者/国家 SPXS/US

大型星座

Loading constellations...